Year,Month,Day,Hour,Minute,Value (Times are PST for windgust in km/hr)
2012,11,17,00,00,9.60
2012,11,17,00,01,11.30
2012,11,17,00,02,6.40
2012,11,17,00,03,17.70
2012,11,17,00,04,17.70
2012,11,17,00,05,9.60
2012,11,17,00,06,9.60
2012,11,17,00,07,12.90
2012,11,17,00,08,9.60
2012,11,17,00,09,9.60
2012,11,17,00,10,8.10
2012,11,17,00,11,17.70
2012,11,17,00,12,20.90
2012,11,17,00,13,20.90
2012,11,17,00,14,16.10
2012,11,17,00,15,22.50
2012,11,17,00,16,20.90
2012,11,17,00,17,22.50
2012,11,17,00,18,20.90
2012,11,17,00,19,19.30
2012,11,17,00,20,11.30
2012,11,17,00,21,17.70
2012,11,17,00,22,17.70
2012,11,17,00,23,20.90
2012,11,17,00,24,22.50
2012,11,17,00,25,20.90
2012,11,17,00,26,11.30
2012,11,17,00,27,19.30
2012,11,17,00,28,19.30
2012,11,17,00,29,19.30
2012,11,17,00,30,14.50
2012,11,17,00,31,17.70
2012,11,17,00,32,12.90
2012,11,17,00,33,16.10
2012,11,17,00,34,22.50
2012,11,17,00,35,20.90
2012,11,17,00,36,19.30
2012,11,17,00,37,17.70
2012,11,17,00,38,14.50
2012,11,17,00,39,17.70
2012,11,17,00,40,14.50
2012,11,17,00,41,24.20
2012,11,17,00,42,14.50
2012,11,17,00,43,11.30
2012,11,17,00,44,12.90
2012,11,17,00,45,20.90
2012,11,17,00,46,11.30
2012,11,17,00,47,19.30
2012,11,17,00,48,22.50
2012,11,17,00,49,12.90
2012,11,17,00,50,17.70
2012,11,17,00,51,17.70
2012,11,17,00,52,19.30
2012,11,17,00,53,19.30
2012,11,17,00,54,22.50
2012,11,17,00,55,11.30
2012,11,17,00,56,11.30
2012,11,17,00,57,24.20
2012,11,17,00,58,25.70
2012,11,17,00,59,25.70
2012,11,17,01,00,14.50
2012,11,17,01,01,16.10
2012,11,17,01,02,20.90
2012,11,17,01,03,14.50
2012,11,17,01,04,9.60
2012,11,17,01,05,16.10
2012,11,17,01,06,22.50
2012,11,17,01,07,19.30
2012,11,17,01,08,20.90
2012,11,17,01,09,22.50
2012,11,17,01,10,17.70
2012,11,17,01,11,25.70
2012,11,17,01,12,20.90
2012,11,17,01,13,9.60
2012,11,17,01,14,22.50
2012,11,17,01,15,19.30
2012,11,17,01,16,19.30
2012,11,17,01,17,19.30
2012,11,17,01,18,24.20
2012,11,17,01,19,19.30
2012,11,17,01,20,14.50
2012,11,17,01,21,11.30
2012,11,17,01,22,16.10
2012,11,17,01,23,24.20
2012,11,17,01,24,11.30
2012,11,17,01,25,17.70
2012,11,17,01,26,11.30
2012,11,17,01,27,8.10
2012,11,17,01,28,12.90
2012,11,17,01,29,14.50
2012,11,17,01,30,14.50
2012,11,17,01,31,9.60
2012,11,17,01,32,11.30
2012,11,17,01,33,12.90
2012,11,17,01,34,9.60
2012,11,17,01,35,12.90
2012,11,17,01,36,6.40
2012,11,17,01,37,14.50
2012,11,17,01,38,22.50
2012,11,17,01,39,17.70
2012,11,17,01,40,9.60
2012,11,17,01,41,12.90
2012,11,17,01,42,14.50
2012,11,17,01,43,20.90
2012,11,17,01,44,33.80
2012,11,17,01,45,29.00
2012,11,17,01,46,14.50
2012,11,17,01,47,16.10
2012,11,17,01,48,20.90
2012,11,17,01,49,19.30
2012,11,17,01,50,12.90
2012,11,17,01,51,19.30
2012,11,17,01,52,14.50
2012,11,17,01,53,6.40
2012,11,17,01,54,3.20
2012,11,17,01,55,8.10
2012,11,17,01,56,11.30
2012,11,17,01,57,17.70
2012,11,17,01,58,12.90
2012,11,17,01,59,17.70
2012,11,17,02,00,19.30
2012,11,17,02,01,19.30
2012,11,17,02,02,20.90
2012,11,17,02,03,19.30
2012,11,17,02,04,19.30
2012,11,17,02,05,19.30
2012,11,17,02,06,22.50
2012,11,17,02,07,19.30
2012,11,17,02,08,25.70
2012,11,17,02,09,38.60
2012,11,17,02,10,35.40
2012,11,17,02,11,24.20
2012,11,17,02,12,30.60
2012,11,17,02,13,29.00
2012,11,17,02,14,20.90
2012,11,17,02,15,24.20
2012,11,17,02,16,22.50
2012,11,17,02,17,20.90
2012,11,17,02,18,12.90
2012,11,17,02,19,27.40
2012,11,17,02,20,22.50
2012,11,17,02,21,29.00
2012,11,17,02,22,30.60
2012,11,17,02,23,29.00
2012,11,17,02,24,22.50
2012,11,17,02,25,37.00
2012,11,17,02,26,32.20
2012,11,17,02,27,32.20
2012,11,17,02,28,45.10
2012,11,17,02,29,27.40
2012,11,17,02,30,37.00
2012,11,17,02,31,27.40
2012,11,17,02,32,29.00
2012,11,17,02,33,25.70
2012,11,17,02,34,24.20
2012,11,17,02,35,29.00
2012,11,17,02,36,30.60
2012,11,17,02,37,35.40
2012,11,17,02,38,32.20
2012,11,17,02,39,22.50
2012,11,17,02,40,33.80
2012,11,17,02,41,19.30
2012,11,17,02,42,29.00
2012,11,17,02,43,38.60
2012,11,17,02,44,35.40
2012,11,17,02,45,43.50
2012,11,17,02,46,37.00
2012,11,17,02,47,37.00
2012,11,17,02,48,30.60
2012,11,17,02,49,29.00
2012,11,17,02,50,20.90
2012,11,17,02,51,24.20
2012,11,17,02,52,19.30
2012,11,17,02,53,20.90
2012,11,17,02,54,20.90
2012,11,17,02,55,22.50
2012,11,17,02,56,22.50
2012,11,17,02,57,32.20
2012,11,17,02,58,33.80
2012,11,17,02,59,29.00
2012,11,17,03,00,27.40
2012,11,17,03,01,20.90
2012,11,17,03,02,27.40
2012,11,17,03,03,33.80
2012,11,17,03,04,30.60
2012,11,17,03,05,27.40
2012,11,17,03,06,24.20
2012,11,17,03,07,27.40
2012,11,17,03,08,16.10
2012,11,17,03,09,33.80
2012,11,17,03,10,27.40
2012,11,17,03,11,30.60
2012,11,17,03,12,27.40
2012,11,17,03,13,17.70
2012,11,17,03,14,27.40
2012,11,17,03,15,19.30
2012,11,17,03,16,27.40
2012,11,17,03,17,12.90
2012,11,17,03,18,22.50
2012,11,17,03,19,25.70
2012,11,17,03,20,29.00
2012,11,17,03,21,33.80
2012,11,17,03,22,17.70
2012,11,17,03,23,30.60
2012,11,17,03,24,24.20
2012,11,17,03,25,19.30
2012,11,17,03,26,32.20
2012,11,17,03,27,20.90
2012,11,17,03,28,17.70
2012,11,17,03,29,29.00
2012,11,17,03,30,19.30
2012,11,17,03,31,14.50
2012,11,17,03,32,12.90
2012,11,17,03,33,12.90
2012,11,17,03,34,17.70
2012,11,17,03,35,9.60
2012,11,17,03,36,24.20
2012,11,17,03,37,30.60
2012,11,17,03,38,25.70
2012,11,17,03,39,25.70
2012,11,17,03,40,16.10
2012,11,17,03,41,14.50
2012,11,17,03,42,29.00
2012,11,17,03,43,24.20
2012,11,17,03,44,22.50
2012,11,17,03,45,20.90
2012,11,17,03,46,19.30
2012,11,17,03,47,20.90
2012,11,17,03,48,17.70
2012,11,17,03,49,22.50
2012,11,17,03,50,22.50
2012,11,17,03,51,30.60
2012,11,17,03,52,32.20
2012,11,17,03,53,20.90
2012,11,17,03,54,27.40
2012,11,17,03,55,19.30
2012,11,17,03,56,29.00
2012,11,17,03,57,29.00
2012,11,17,03,58,27.40
2012,11,17,03,59,24.20
2012,11,17,04,00,19.30
2012,11,17,04,01,19.30
2012,11,17,04,02,43.50
2012,11,17,04,03,33.80
2012,11,17,04,04,22.50
2012,11,17,04,05,24.20
2012,11,17,04,06,22.50
2012,11,17,04,07,29.00
2012,11,17,04,08,12.90
2012,11,17,04,09,22.50
2012,11,17,04,10,32.20
2012,11,17,04,11,33.80
2012,11,17,04,12,30.60
2012,11,17,04,13,20.90
2012,11,17,04,14,25.70
2012,11,17,04,15,24.20
2012,11,17,04,16,20.90
2012,11,17,04,17,22.50
2012,11,17,04,18,33.80
2012,11,17,04,19,27.40
2012,11,17,04,20,37.00
2012,11,17,04,21,32.20
2012,11,17,04,22,33.80
2012,11,17,04,23,38.60
2012,11,17,04,24,29.00
2012,11,17,04,25,41.80
2012,11,17,04,26,29.00
2012,11,17,04,27,32.20
2012,11,17,04,28,30.60
2012,11,17,04,29,24.20
2012,11,17,04,30,30.60
2012,11,17,04,31,30.60
2012,11,17,04,32,22.50
2012,11,17,04,33,33.80
2012,11,17,04,34,27.40
2012,11,17,04,35,22.50
2012,11,17,04,36,22.50
2012,11,17,04,37,19.30
2012,11,17,04,38,24.20
2012,11,17,04,39,24.20
2012,11,17,04,40,20.90
2012,11,17,04,41,27.40
2012,11,17,04,42,16.10
2012,11,17,04,43,30.60
2012,11,17,04,44,19.30
2012,11,17,04,45,24.20
2012,11,17,04,46,37.00
2012,11,17,04,47,32.20
2012,11,17,04,48,29.00
2012,11,17,04,49,12.90
2012,11,17,04,50,35.40
2012,11,17,04,51,29.00
2012,11,17,04,52,29.00
2012,11,17,04,53,29.00
2012,11,17,04,54,16.10
2012,11,17,04,55,27.40
2012,11,17,04,56,24.20
2012,11,17,04,57,29.00
2012,11,17,04,58,30.60
2012,11,17,04,59,35.40
2012,11,17,05,00,30.60
2012,11,17,05,01,24.20
2012,11,17,05,02,29.00
2012,11,17,05,03,24.20
2012,11,17,05,04,30.60
2012,11,17,05,05,20.90
2012,11,17,05,06,20.90
2012,11,17,05,07,22.50
2012,11,17,05,08,24.20
2012,11,17,05,09,29.00
2012,11,17,05,10,29.00
2012,11,17,05,11,27.40
2012,11,17,05,12,37.00
2012,11,17,05,13,29.00
2012,11,17,05,14,32.20
2012,11,17,05,15,29.00
2012,11,17,05,16,30.60
2012,11,17,05,17,22.50
2012,11,17,05,18,20.90
2012,11,17,05,19,33.80
2012,11,17,05,20,22.50
2012,11,17,05,21,32.20
2012,11,17,05,22,25.70
2012,11,17,05,23,29.00
2012,11,17,05,24,24.20
2012,11,17,05,25,20.90
2012,11,17,05,26,25.70
2012,11,17,05,27,25.70
2012,11,17,05,28,19.30
2012,11,17,05,29,22.50
2012,11,17,05,30,27.40
2012,11,17,05,31,29.00
2012,11,17,05,32,25.70
2012,11,17,05,33,37.00
2012,11,17,05,34,30.60
2012,11,17,05,35,30.60
2012,11,17,05,36,35.40
2012,11,17,05,37,22.50
2012,11,17,05,38,33.80
2012,11,17,05,39,30.60
2012,11,17,05,40,19.30
2012,11,17,05,41,30.60
2012,11,17,05,42,33.80
2012,11,17,05,43,29.00
2012,11,17,05,44,35.40
2012,11,17,05,45,40.20
2012,11,17,05,46,30.60
2012,11,17,05,47,40.20
2012,11,17,05,48,29.00
2012,11,17,05,49,33.80
2012,11,17,05,50,35.40
2012,11,17,05,51,35.40
2012,11,17,05,52,33.80
2012,11,17,05,53,22.50
2012,11,17,05,54,25.70
2012,11,17,05,55,24.20
2012,11,17,05,56,32.20
2012,11,17,05,57,30.60
2012,11,17,05,58,32.20
2012,11,17,05,59,29.00
2012,11,17,06,00,25.70
2012,11,17,06,01,29.00
2012,11,17,06,02,27.40
2012,11,17,06,03,29.00
2012,11,17,06,04,22.50
2012,11,17,06,05,30.60
2012,11,17,06,06,25.70
2012,11,17,06,07,19.30
2012,11,17,06,08,46.70
2012,11,17,06,09,30.60
2012,11,17,06,10,32.20
2012,11,17,06,11,22.50
2012,11,17,06,12,19.30
2012,11,17,06,13,30.60
2012,11,17,06,14,24.20
2012,11,17,06,15,20.90
2012,11,17,06,16,20.90
2012,11,17,06,17,37.00
2012,11,17,06,18,32.20
2012,11,17,06,19,27.40
2012,11,17,06,20,29.00
2012,11,17,06,21,33.80
2012,11,17,06,22,25.70
2012,11,17,06,23,22.50
2012,11,17,06,24,22.50
2012,11,17,06,25,20.90
2012,11,17,06,26,22.50
2012,11,17,06,27,22.50
2012,11,17,06,28,25.70
2012,11,17,06,29,35.40
2012,11,17,06,30,29.00
2012,11,17,06,31,25.70
2012,11,17,06,32,25.70
2012,11,17,06,33,22.50
2012,11,17,06,34,24.20
2012,11,17,06,35,25.70
2012,11,17,06,36,25.70
2012,11,17,06,37,20.90
2012,11,17,06,38,20.90
2012,11,17,06,39,17.70
2012,11,17,06,40,16.10
2012,11,17,06,41,9.60
2012,11,17,06,42,24.20
2012,11,17,06,43,27.40
2012,11,17,06,44,20.90
2012,11,17,06,45,20.90
2012,11,17,06,46,35.40
2012,11,17,06,47,33.80
2012,11,17,06,48,24.20
2012,11,17,06,49,35.40
2012,11,17,06,50,29.00
2012,11,17,06,51,24.20
2012,11,17,06,52,25.70
2012,11,17,06,53,32.20
2012,11,17,06,54,30.60
2012,11,17,06,55,29.00
2012,11,17,06,56,30.60
2012,11,17,06,57,29.00
2012,11,17,06,58,33.80
2012,11,17,06,59,35.40
2012,11,17,07,00,37.00
2012,11,17,07,01,40.20
2012,11,17,07,02,27.40
2012,11,17,07,03,35.40
2012,11,17,07,04,33.80
2012,11,17,07,05,25.70
2012,11,17,07,06,22.50
2012,11,17,07,07,37.00
2012,11,17,07,08,33.80
2012,11,17,07,09,40.20
2012,11,17,07,10,33.80
2012,11,17,07,11,30.60
2012,11,17,07,12,35.40
2012,11,17,07,13,27.40
2012,11,17,07,14,29.00
2012,11,17,07,15,41.80
2012,11,17,07,16,45.10
2012,11,17,07,17,35.40
2012,11,17,07,18,37.00
2012,11,17,07,19,46.70
2012,11,17,07,20,35.40
2012,11,17,07,21,38.60
2012,11,17,07,22,32.20
2012,11,17,07,23,38.60
2012,11,17,07,24,29.00
2012,11,17,07,25,32.20
2012,11,17,07,26,40.20
2012,11,17,07,27,35.40
2012,11,17,07,28,27.40
2012,11,17,07,29,38.60
2012,11,17,07,30,32.20
2012,11,17,07,31,38.60
2012,11,17,07,32,45.10
2012,11,17,07,33,27.40
2012,11,17,07,34,20.90
2012,11,17,07,35,37.00
2012,11,17,07,36,30.60
2012,11,17,07,37,35.40
2012,11,17,07,38,32.20
2012,11,17,07,39,35.40
2012,11,17,07,40,32.20
2012,11,17,07,41,40.20
2012,11,17,07,42,38.60
2012,11,17,07,43,22.50
2012,11,17,07,44,40.20
2012,11,17,07,45,30.60
2012,11,17,07,46,29.00
2012,11,17,07,47,27.40
2012,11,17,07,48,24.20
2012,11,17,07,49,33.80
2012,11,17,07,50,32.20
2012,11,17,07,51,27.40
2012,11,17,07,52,30.60
2012,11,17,07,53,22.50
2012,11,17,07,54,40.20
2012,11,17,07,55,35.40
2012,11,17,07,56,37.00
2012,11,17,07,57,14.50
2012,11,17,07,58,16.10
2012,11,17,07,59,29.00
2012,11,17,08,00,25.70
2012,11,17,08,01,29.00
2012,11,17,08,02,29.00
2012,11,17,08,03,38.60
2012,11,17,08,04,29.00
2012,11,17,08,05,32.20
2012,11,17,08,06,33.80
2012,11,17,08,07,29.00
2012,11,17,08,08,33.80
2012,11,17,08,09,35.40
2012,11,17,08,10,35.40
2012,11,17,08,11,35.40
2012,11,17,08,12,25.70
2012,11,17,08,13,40.20
2012,11,17,08,14,30.60
2012,11,17,08,15,32.20
2012,11,17,08,16,29.00
2012,11,17,08,17,32.20
2012,11,17,08,18,27.40
2012,11,17,08,19,29.00
2012,11,17,08,20,29.00
2012,11,17,08,21,19.30
2012,11,17,08,22,27.40
2012,11,17,08,23,37.00
2012,11,17,08,24,38.60
2012,11,17,08,25,30.60
2012,11,17,08,26,30.60
2012,11,17,08,27,40.20
2012,11,17,08,28,38.60
2012,11,17,08,29,30.60
2012,11,17,08,30,43.50
2012,11,17,08,31,37.00
2012,11,17,08,32,25.70
2012,11,17,08,33,33.80
2012,11,17,08,34,35.40
2012,11,17,08,35,30.60
2012,11,17,08,36,48.30
2012,11,17,08,37,32.20
2012,11,17,08,38,38.60
2012,11,17,08,39,33.80
2012,11,17,08,40,37.00
2012,11,17,08,41,53.10
2012,11,17,08,42,37.00
2012,11,17,08,43,29.00
2012,11,17,08,44,35.40
2012,11,17,08,45,33.80
2012,11,17,08,46,25.70
2012,11,17,08,47,30.60
2012,11,17,08,48,30.60
2012,11,17,08,49,20.90
2012,11,17,08,50,40.20
2012,11,17,08,51,22.50
2012,11,17,08,52,30.60
2012,11,17,08,53,19.30
2012,11,17,08,54,33.80
2012,11,17,08,55,32.20
2012,11,17,08,56,27.40
2012,11,17,08,57,33.80
2012,11,17,08,58,37.00
2012,11,17,08,59,25.70
2012,11,17,09,00,37.00
2012,11,17,09,01,25.70
2012,11,17,09,02,43.50
2012,11,17,09,03,22.50
2012,11,17,09,04,35.40
2012,11,17,09,05,33.80
2012,11,17,09,06,22.50
2012,11,17,09,07,32.20
2012,11,17,09,08,32.20
2012,11,17,09,09,22.50
2012,11,17,09,10,41.80
2012,11,17,09,11,20.90
2012,11,17,09,12,24.20
2012,11,17,09,13,27.40
2012,11,17,09,14,40.20
2012,11,17,09,15,30.60
2012,11,17,09,16,29.00
2012,11,17,09,17,32.20
2012,11,17,09,18,35.40
2012,11,17,09,19,25.70
2012,11,17,09,20,16.10
2012,11,17,09,21,30.60
2012,11,17,09,22,41.80
2012,11,17,09,23,35.40
2012,11,17,09,24,30.60
2012,11,17,09,25,17.70
2012,11,17,09,26,19.30
2012,11,17,09,27,33.80
2012,11,17,09,28,27.40
2012,11,17,09,29,20.90
2012,11,17,09,30,29.00
2012,11,17,09,31,27.40
2012,11,17,09,32,14.50
2012,11,17,09,33,17.70
2012,11,17,09,34,27.40
2012,11,17,09,35,38.60
2012,11,17,09,36,30.60
2012,11,17,09,37,32.20
2012,11,17,09,38,22.50
2012,11,17,09,39,17.70
2012,11,17,09,40,22.50
2012,11,17,09,41,17.70
2012,11,17,09,42,20.90
2012,11,17,09,43,27.40
2012,11,17,09,44,33.80
2012,11,17,09,45,20.90
2012,11,17,09,46,14.50
2012,11,17,09,47,8.10
2012,11,17,09,48,11.30
2012,11,17,09,49,11.30
2012,11,17,09,50,12.90
2012,11,17,09,51,11.30
2012,11,17,09,52,12.90
2012,11,17,09,53,22.50
2012,11,17,09,54,9.60
2012,11,17,09,55,9.60
2012,11,17,09,56,11.30
2012,11,17,09,57,12.90
2012,11,17,09,58,16.10
2012,11,17,09,59,14.50
2012,11,17,10,00,6.40
2012,11,17,10,01,1.60
2012,11,17,10,02,6.40
2012,11,17,10,03,6.40
2012,11,17,10,04,3.20
2012,11,17,10,05,1.60
2012,11,17,10,06,11.30
2012,11,17,10,07,6.40
2012,11,17,10,08,11.30
2012,11,17,10,09,8.10
2012,11,17,10,10,6.40
2012,11,17,10,11,6.40
2012,11,17,10,12,3.20
2012,11,17,10,13,6.40
2012,11,17,10,14,6.40
2012,11,17,10,15,6.40
2012,11,17,10,16,3.20
2012,11,17,10,17,3.20
2012,11,17,10,18,3.20
2012,11,17,10,19,1.60
2012,11,17,10,20,8.10
2012,11,17,10,21,3.20
2012,11,17,10,22,6.40
2012,11,17,10,23,14.50
2012,11,17,10,24,9.60
2012,11,17,10,25,12.90
2012,11,17,10,26,8.10
2012,11,17,10,27,9.60
2012,11,17,10,28,6.40
2012,11,17,10,29,8.10
2012,11,17,10,30,11.30
2012,11,17,10,31,6.40
2012,11,17,10,32,6.40
2012,11,17,10,33,6.40
2012,11,17,10,34,20.90
2012,11,17,10,35,3.20
2012,11,17,10,36,1.60
2012,11,17,10,37,16.10
2012,11,17,10,38,17.70
2012,11,17,10,39,30.60
2012,11,17,10,40,25.70
2012,11,17,10,41,11.30
2012,11,17,10,42,12.90
2012,11,17,10,43,12.90
2012,11,17,10,44,33.80
2012,11,17,10,45,24.20
2012,11,17,10,46,17.70
2012,11,17,10,47,17.70
2012,11,17,10,48,20.90
2012,11,17,10,49,14.50
2012,11,17,10,50,14.50
2012,11,17,10,51,20.90
2012,11,17,10,52,14.50
2012,11,17,10,53,16.10
2012,11,17,10,54,12.90
2012,11,17,10,55,20.90
2012,11,17,10,56,19.30
2012,11,17,10,57,19.30
2012,11,17,10,58,9.60
2012,11,17,10,59,8.10
2012,11,17,11,00,17.70
2012,11,17,11,01,22.50
2012,11,17,11,02,12.90
2012,11,17,11,03,9.60
2012,11,17,11,04,20.90
2012,11,17,11,05,33.80
2012,11,17,11,06,32.20
2012,11,17,11,07,20.90
2012,11,17,11,08,17.70
2012,11,17,11,09,25.70
2012,11,17,11,10,19.30
2012,11,17,11,11,17.70
2012,11,17,11,12,12.90
2012,11,17,11,13,22.50
2012,11,17,11,14,32.20
2012,11,17,11,15,32.20
2012,11,17,11,16,22.50
2012,11,17,11,17,17.70
2012,11,17,11,18,19.30
2012,11,17,11,19,37.00
2012,11,17,11,20,29.00
2012,11,17,11,21,30.60
2012,11,17,11,22,25.70
2012,11,17,11,23,24.20
2012,11,17,11,24,22.50
2012,11,17,11,25,22.50
2012,11,17,11,26,22.50
2012,11,17,11,27,17.70
2012,11,17,11,28,19.30
2012,11,17,11,29,22.50
2012,11,17,11,30,16.10
2012,11,17,11,31,24.20
2012,11,17,11,32,38.60
2012,11,17,11,33,27.40
2012,11,17,11,34,17.70
2012,11,17,11,35,16.10
2012,11,17,11,36,29.00
2012,11,17,11,37,17.70
2012,11,17,11,38,20.90
2012,11,17,11,39,12.90
2012,11,17,11,40,8.10
2012,11,17,11,41,29.00
2012,11,17,11,42,29.00
2012,11,17,11,43,16.10
2012,11,17,11,44,25.70
2012,11,17,11,45,22.50
2012,11,17,11,46,24.20
2012,11,17,11,47,24.20
2012,11,17,11,48,29.00
2012,11,17,11,49,20.90
2012,11,17,11,50,19.30
2012,11,17,11,51,20.90
2012,11,17,11,52,24.20
2012,11,17,11,53,17.70
2012,11,17,11,54,19.30
2012,11,17,11,55,17.70
2012,11,17,11,56,17.70
2012,11,17,11,57,17.70
2012,11,17,11,58,8.10
2012,11,17,11,59,24.20
2012,11,17,12,00,20.90
2012,11,17,12,01,25.70
2012,11,17,12,02,24.20
2012,11,17,12,03,17.70
2012,11,17,12,04,19.30
2012,11,17,12,05,25.70
2012,11,17,12,06,24.20
2012,11,17,12,07,24.20
2012,11,17,12,08,17.70
2012,11,17,12,09,24.20
2012,11,17,12,10,20.90
2012,11,17,12,11,27.40
2012,11,17,12,12,32.20
2012,11,17,12,13,19.30
2012,11,17,12,14,20.90
2012,11,17,12,15,30.60
2012,11,17,12,16,20.90
2012,11,17,12,17,30.60
2012,11,17,12,18,12.90
2012,11,17,12,19,30.60
2012,11,17,12,20,22.50
2012,11,17,12,21,19.30
2012,11,17,12,22,24.20
2012,11,17,12,23,17.70
2012,11,17,12,24,24.20
2012,11,17,12,25,29.00
2012,11,17,12,26,24.20
2012,11,17,12,27,29.00
2012,11,17,12,28,29.00
2012,11,17,12,29,38.60
2012,11,17,12,30,32.20
2012,11,17,12,31,29.00
2012,11,17,12,32,32.20
2012,11,17,12,33,33.80
2012,11,17,12,34,25.70
2012,11,17,12,35,24.20
2012,11,17,12,36,24.20
2012,11,17,12,37,29.00
2012,11,17,12,38,19.30
2012,11,17,12,39,19.30
2012,11,17,12,40,37.00
2012,11,17,12,41,32.20
2012,11,17,12,42,40.20
2012,11,17,12,43,24.20
2012,11,17,12,44,24.20
2012,11,17,12,45,40.20
2012,11,17,12,46,20.90
2012,11,17,12,47,22.50
2012,11,17,12,48,20.90
2012,11,17,12,49,30.60
2012,11,17,12,50,14.50
2012,11,17,12,51,24.20
2012,11,17,12,52,30.60
2012,11,17,12,53,40.20
2012,11,17,12,54,29.00
2012,11,17,12,55,33.80
2012,11,17,12,56,17.70
2012,11,17,12,57,33.80
2012,11,17,12,58,25.70
2012,11,17,12,59,33.80
2012,11,17,13,00,30.60
2012,11,17,13,01,25.70
2012,11,17,13,02,33.80
2012,11,17,13,03,29.00
2012,11,17,13,04,30.60
2012,11,17,13,05,30.60
2012,11,17,13,06,29.00
2012,11,17,13,07,24.20
2012,11,17,13,08,25.70
2012,11,17,13,09,30.60
2012,11,17,13,10,24.20
2012,11,17,13,11,35.40
2012,11,17,13,12,35.40
2012,11,17,13,13,33.80
2012,11,17,13,14,29.00
2012,11,17,13,15,27.40
2012,11,17,13,16,40.20
2012,11,17,13,17,22.50
2012,11,17,13,18,32.20
2012,11,17,13,19,19.30
2012,11,17,13,20,24.20
2012,11,17,13,21,20.90
2012,11,17,13,22,29.00
2012,11,17,13,23,22.50
2012,11,17,13,24,24.20
2012,11,17,13,25,29.00
2012,11,17,13,26,24.20
2012,11,17,13,27,17.70
2012,11,17,13,28,20.90
2012,11,17,13,29,24.20
2012,11,17,13,30,25.70
2012,11,17,13,31,14.50
2012,11,17,13,32,17.70
2012,11,17,13,33,11.30
2012,11,17,13,34,20.90
2012,11,17,13,35,17.70
2012,11,17,13,36,17.70
2012,11,17,13,37,17.70
2012,11,17,13,38,6.40
2012,11,17,13,39,8.10
2012,11,17,13,40,6.40
2012,11,17,13,41,8.10
2012,11,17,13,42,12.90
2012,11,17,13,43,11.30
2012,11,17,13,44,16.10
2012,11,17,13,45,9.60
2012,11,17,13,46,4.80
2012,11,17,13,47,9.60
2012,11,17,13,48,6.40
2012,11,17,13,49,6.40
2012,11,17,13,50,6.40
2012,11,17,13,51,8.10
2012,11,17,13,52,1.60
2012,11,17,13,53,3.20
2012,11,17,13,54,3.20
2012,11,17,13,55,4.80
2012,11,17,13,56,3.20
2012,11,17,13,57,9.60
2012,11,17,13,58,11.30
2012,11,17,13,59,12.90
2012,11,17,14,00,17.70
2012,11,17,14,01,11.30
2012,11,17,14,02,9.60
2012,11,17,14,03,8.10
2012,11,17,14,04,11.30
2012,11,17,14,05,12.90
2012,11,17,14,06,11.30
2012,11,17,14,07,9.60
2012,11,17,14,08,9.60
2012,11,17,14,09,8.10
2012,11,17,14,10,11.30
2012,11,17,14,11,11.30
2012,11,17,14,12,8.10
2012,11,17,14,13,9.60
2012,11,17,14,14,3.20
2012,11,17,14,15,9.60
2012,11,17,14,16,8.10
2012,11,17,14,17,4.80
2012,11,17,14,18,3.20
2012,11,17,14,20,1.60
2012,11,17,14,22,3.20
2012,11,17,14,23,4.80
2012,11,17,14,24,6.40
2012,11,17,14,25,4.80
2012,11,17,14,26,4.80
2012,11,17,14,27,4.80
2012,11,17,14,28,9.60
2012,11,17,14,29,4.80
2012,11,17,14,30,3.20
2012,11,17,14,31,1.60
2012,11,17,14,32,3.20
2012,11,17,14,33,1.60
2012,11,17,14,34,1.60
2012,11,17,14,35,3.20
2012,11,17,14,36,3.20
2012,11,17,14,37,3.20
2012,11,17,14,38,9.60
2012,11,17,14,39,6.40
2012,11,17,14,40,6.40
2012,11,17,14,41,3.20
2012,11,17,14,42,3.20
2012,11,17,14,43,3.20
2012,11,17,14,44,1.60
2012,11,17,14,45,3.20
2012,11,17,14,46,3.20
2012,11,17,14,47,3.20
2012,11,17,14,48,6.40
2012,11,17,14,49,9.60
2012,11,17,14,50,3.20
2012,11,17,14,51,6.40
2012,11,17,14,52,3.20
2012,11,17,14,53,4.80
2012,11,17,14,54,3.20
2012,11,17,14,55,3.20
2012,11,17,14,56,1.60
2012,11,17,14,57,1.60
2012,11,17,14,58,1.60
2012,11,17,14,59,8.10
2012,11,17,15,00,4.80
2012,11,17,15,01,4.80
2012,11,17,15,02,3.20
2012,11,17,15,04,1.60
2012,11,17,15,05,1.60
2012,11,17,15,06,4.80
2012,11,17,15,07,1.60
2012,11,17,15,08,1.60
2012,11,17,15,09,4.80
2012,11,17,15,10,3.20
2012,11,17,15,11,4.80
2012,11,17,15,12,3.20
2012,11,17,15,13,4.80
2012,11,17,15,14,3.20
2012,11,17,15,15,4.80
2012,11,17,15,16,6.40
2012,11,17,15,17,8.10
2012,11,17,15,18,4.80
2012,11,17,15,19,3.20
2012,11,17,15,20,3.20
2012,11,17,15,21,4.80
2012,11,17,15,22,4.80
2012,11,17,15,23,3.20
2012,11,17,15,24,1.60
2012,11,17,15,25,3.20
2012,11,17,15,26,3.20
2012,11,17,15,27,3.20
2012,11,17,15,28,4.80
2012,11,17,15,29,4.80
2012,11,17,15,30,8.10
2012,11,17,15,31,3.20
2012,11,17,15,32,1.60
2012,11,17,15,33,3.20
2012,11,17,15,34,3.20
2012,11,17,15,37,1.60
2012,11,17,15,38,8.10
2012,11,17,15,39,3.20
2012,11,17,15,40,4.80
2012,11,17,15,41,3.20
2012,11,17,15,42,4.80
2012,11,17,15,43,4.80
2012,11,17,15,44,4.80
2012,11,17,15,45,9.60
2012,11,17,15,46,8.10
2012,11,17,15,47,8.10
2012,11,17,15,48,3.20
2012,11,17,15,50,1.60
2012,11,17,15,51,3.20
2012,11,17,15,52,9.60
2012,11,17,15,53,9.60
2012,11,17,15,54,8.10
2012,11,17,15,55,6.40
2012,11,17,15,56,4.80
2012,11,17,15,57,4.80
2012,11,17,15,58,6.40
2012,11,17,15,59,4.80
2012,11,17,16,00,17.70
2012,11,17,16,01,8.10
2012,11,17,16,02,8.10
2012,11,17,16,03,9.60
2012,11,17,16,04,4.80
2012,11,17,16,05,4.80
2012,11,17,16,06,8.10
2012,11,17,16,07,9.60
2012,11,17,16,08,6.40
2012,11,17,16,09,8.10
2012,11,17,16,10,3.20
2012,11,17,16,11,1.60
2012,11,17,16,12,4.80
2012,11,17,16,13,6.40
2012,11,17,16,14,6.40
2012,11,17,16,15,4.80
2012,11,17,16,16,3.20
2012,11,17,16,17,4.80
2012,11,17,16,18,4.80
2012,11,17,16,19,4.80
2012,11,17,16,20,3.20
2012,11,17,16,21,4.80
2012,11,17,16,22,1.60
2012,11,17,16,23,1.60
2012,11,17,16,24,1.60
2012,11,17,16,25,3.20
2012,11,17,16,26,4.80
2012,11,17,16,27,3.20
2012,11,17,16,28,1.60
2012,11,17,16,29,1.60
2012,11,17,16,32,3.20
2012,11,17,16,33,4.80
2012,11,17,16,34,4.80
2012,11,17,16,35,3.20
2012,11,17,16,36,4.80
2012,11,17,16,37,1.60
2012,11,17,16,38,3.20
2012,11,17,16,39,3.20
2012,11,17,16,40,1.60
2012,11,17,16,41,1.60
2012,11,17,16,42,4.80
2012,11,17,16,43,1.60
2012,11,17,16,44,3.20
2012,11,17,16,45,6.40
2012,11,17,16,46,8.10
2012,11,17,16,47,9.60
2012,11,17,16,48,8.10
2012,11,17,16,49,4.80
2012,11,17,16,50,4.80
2012,11,17,16,51,4.80
2012,11,17,16,52,3.20
2012,11,17,16,53,4.80
2012,11,17,16,54,3.20
2012,11,17,16,55,3.20
2012,11,17,16,56,1.60
2012,11,17,16,57,1.60
2012,11,17,16,58,9.60
2012,11,17,16,59,11.30
2012,11,17,17,00,11.30
2012,11,17,17,01,9.60
2012,11,17,17,02,17.70
2012,11,17,17,03,17.70
2012,11,17,17,04,9.60
2012,11,17,17,05,12.90
2012,11,17,17,06,12.90
2012,11,17,17,07,8.10
2012,11,17,17,08,9.60
2012,11,17,17,09,14.50
2012,11,17,17,10,14.50
2012,11,17,17,11,14.50
2012,11,17,17,12,12.90
2012,11,17,17,13,12.90
2012,11,17,17,14,19.30
2012,11,17,17,15,17.70
2012,11,17,17,16,12.90
2012,11,17,17,17,11.30
2012,11,17,17,18,17.70
2012,11,17,17,19,11.30
2012,11,17,17,20,11.30
2012,11,17,17,21,14.50
2012,11,17,17,22,11.30
2012,11,17,17,23,11.30
2012,11,17,17,24,11.30
2012,11,17,17,25,11.30
2012,11,17,17,26,11.30
2012,11,17,17,27,8.10
2012,11,17,17,28,12.90
2012,11,17,17,29,19.30
2012,11,17,17,30,12.90
2012,11,17,17,31,12.90
2012,11,17,17,32,12.90
2012,11,17,17,33,12.90
2012,11,17,17,34,12.90
2012,11,17,17,35,11.30
2012,11,17,17,36,12.90
2012,11,17,17,37,9.60
2012,11,17,17,38,9.60